Location: Krasnoyarskiy Pitomnik
(51.1333°N, 71.6167°E)
Time: 10:14:35
(UTC+00:00)

H-2A R/B - Pass Details

Date: 22 October 2021
Orbit: 732 x 837 km, 98.2° (Epoch: 07 December)

Event Time Altitude Azimuth Distance (km) Brightness Sun altitude
Rises 13:36:20 0° 179° (S) 3,341 5.3 -14.7°
Reaches altitude 10° 13:38:43 10° 185° (S) 2,423 4.6 -15.1°
Maximum altitude 13:43:58 51° 261° (W) 1,040 3.1 -15.9°
Drops below altitude 10° 13:49:19 10° 337° (NNW) 2,464 4.9 -16.8°
Sets 13:51:46 0° 343° (NNW) 3,402 5.6 -17.2°
